Location: Bosque County Sheriff's Office
(31.9219°N, 97.6588°W)
Time: 22:29:48
(UTC+00:00)

Daily predictions for brighter satellites

Satellite Brightness Start Highest point End
(mag) Time Altitude Azimuth Time Altitude Azimuth Time Altitude Azimuth
Cosmos 2082 Rocket 4.1 12:06:06 11° NNW 12:06:06 11° NNW 12:06:29 10° NNW
BREEZE-M DEB (TANK) 2.5 12:00:26 11° SW 12:03:54 78° NW 12:06:14 10° NE
SL-24 R/B 4.5 12:00:11 10° N 12:05:03 48° WNW 12:09:18 10° SSW
Cosmos 1892 Rocket 3.8 12:04:39 10° SSW 12:08:46 42° W 12:12:56 10° N
SL-16 R/B 2.9 12:04:15 10° N 12:09:47 53° ENE 12:15:17 10° SE
SWAS 4.2 12:07:26 15° NNW 12:10:46 85° WSW 12:14:46 10° SSE
Cosmos 1937 Rocket 3.4 12:08:34 10° NNW 12:13:40 72° WSW 12:18:45 10° S
Cosmos 372 Rocket 4.5 12:11:44 17° NW 12:15:00 36° W 12:19:36 10° SSW
COSMO-SKYMED 1 2.4 12:19:04 10° S 12:23:08 65° W 12:27:14 10° NNW
OAO 2 Rocket 3.4 12:20:42 10° WSW 12:25:55 87° SSE 12:31:01 10° ENE
Cosmos-2242 2.9 12:24:15 10° N 12:28:28 87° E 12:32:38 10° S
Cosmos 1092 Rocket 4.2 12:23:34 10° SSW 12:29:37 48° W 12:35:38 10° N
Cosmos 1980 Rocket 3.7 12:28:37 14° WNW 12:30:29 16° W 12:33:42 10° SW
IRIDIUM 114 4.5 12:25:49 10° S 12:31:01 80° E 12:36:15 10° N
Cosmos 1814 Rocket 4.0 12:25:57 10° SSW 12:31:04 61° WNW 12:36:17 10° N
Cosmos 2278 3.9 12:27:52 10° NNW 12:33:32 75° ENE 12:39:08 10° SSE
ATLAS 2AS CENTAUR R/B 3.0 12:28:47 10° SSW 12:35:56 80° ESE 12:42:54 10° NNE
Cosmos 1553 Rocket 4.5 12:30:03 10° N 12:36:27 69° E 12:42:48 10° SSE
Cosmos 405 Rocket 2.2 12:35:30 10° SSW 12:38:41 62° W 12:41:56 10° N
CZ-2D R/B 4.4 12:35:47 10° NNE 12:38:46 39° E 12:41:45 10° S
IRIDIUM 103 4.3 12:34:57 10° S 12:40:10 83° W 12:45:24 10° N
Centaur AC-119 3.9 12:34:57 10° WSW 12:40:14 43° S 12:44:56 10° ESE
Cosmos 1602 Rocket 4.2 12:38:39 10° S 12:42:59 62° E 12:47:23 10° NNE
CBERS-1 4.0 12:38:02 10° N 12:43:05 66° WNW 12:48:06 10° SSW
CORIOLIS 4.5 12:37:53 10° NNE 12:43:17 75° ESE 12:48:41 10° S
COSMOS 2455 3.6 12:39:00 10° NW 12:44:15 32° WSW 12:49:30 10° SSW
CZ-3 R/B 3.6 12:33:52 10° W 12:46:04 26° SW 12:51:29 10° S
Tiangong -2.1 12:46:39 10° WNW 12:49:52 78° SSW 12:53:05 10° SE
OAO 3 Copernicus 4.4 12:45:59 10° W 12:50:57 62° N 12:55:54 10° ENE
Cosmos 2058 Rocket 3.5 12:47:05 10° NNW 12:51:15 42° W 12:55:22 10° SSW
MOS 1 Rocket 4.4 12:49:11 10° NNE 12:54:27 59° E 12:59:33 10° S
Cosmos 1833 4.4 12:51:05 10° SW 12:56:31 50° WNW 13:02:00 10° N
Cosmos 1980 Rocket 3.2 23:44:08 10° SSE 23:48:46 27° ESE 23:53:24 10° NE
Cosmos 2208 Rocket 4.1 23:43:58 10° N 23:49:03 55° ENE 23:54:07 10° SSE
Hubble Space Telescope 2.6 23:48:01 10° SSW 23:50:47 19° SSE 23:53:34 10° ESE
Intercosmos 24 3.8 23:47:33 10° N 23:51:07 79° W 23:54:53 10° S
